| time (UTC) | temp F | wind direction | speed MPH | gust MPH | rain 1hr in | rain 24hr in | rain mn in | humidity % | barometer mb |
| 20260904233032 | 72 | 5 | 0.0 | 0.0 | 0.00 | 0.32 | 0.00 | 76 | 1014.6 |
| 20260904231536 | 72 | 5 | 0.0 | 0.0 | 0.00 | 0.32 | 0.00 | 75 | 1014.4 |
| 20260904230032 | 72 | 5 | 0.0 | 0.0 | 0.00 | 0.32 | 0.00 | 74 | 1014.2 |
| 20260904224544 | 73 | 5 | 0.0 | 0.0 | 0.00 | 0.32 | 0.00 | 73 | 1014.0 |
| 20260904223050 | 73 | 5 | 0.0 | 2.0 | 0.00 | 0.32 | 0.00 | 72 | 1014.0 |
| 20260904221509 | 73 | 5 | 0.0 | 2.0 | 0.00 | 0.32 | 0.00 | 71 | 1013.8 |
| 20260904220031 | 74 | 44 | 0.0 | 2.0 | 0.00 | 0.32 | 0.00 | 71 | 1014.0 |
| 20260904214535 | 74 | 355 | 1.0 | 4.0 | 0.00 | 0.32 | 0.00 | 70 | 1014.0 |
| 20260904213008 | 74 | 13 | 0.0 | 2.0 | 0.00 | 0.32 | 0.00 | 71 | 1014.0 |
| 20260904211555 | 74 | 13 | 0.0 | 3.0 | 0.00 | 0.32 | 0.00 | 70 | 1014.1 |
| 20260904210046 | 74 | 5 | 0.0 | 2.0 | 0.00 | 0.49 | 0.00 | 70 | 1014.4 |
| 20260904204521 | 75 | 236 | 0.0 | 2.0 | 0.00 | 0.49 | 0.00 | 69 | 1014.3 |
| 20260904203015 | 75 | 22 | 0.0 | 2.0 | 0.00 | 0.49 | 0.00 | 71 | 1014.3 |
| 20260904201508 | 75 | 22 | 0.0 | 2.0 | 0.00 | 0.49 | 0.00 | 71 | 1014.3 |
| 20260904200100 | 75 | 360 | 0.0 | 4.0 | 0.00 | 0.49 | 0.00 | 72 | 1014.4 |
| 20260904194511 | 76 | 24 | 0.0 | 2.0 | 0.00 | 0.49 | 0.00 | 72 | 1014.7 |
| 20260904193011 | 76 | 17 | 0.0 | 2.0 | 0.00 | 0.49 | 0.00 | 72 | 1014.9 |
| 20260904191512 | 76 | 351 | 1.0 | 3.0 | 0.00 | 0.49 | 0.00 | 72 | 1014.9 |
| 20260904190045 | 76 | 355 | 0.0 | 5.0 | 0.00 | 0.49 | 0.00 | 71 | 1015.1 |
| 20260904184505 | 76 | 15 | 1.0 | 5.0 | 0.00 | 0.49 | 0.00 | 72 | 1015.1 |
| 20260904183005 | 76 | 19 | 0.0 | 4.0 | 0.00 | 0.49 | 0.00 | 72 | 1015.2 |
| 20260904181505 | 76 | 21 | 1.0 | 5.0 | 0.00 | 0.49 | 0.00 | 71 | 1015.2 |
| 20260904180009 | 76 | 13 | 2.0 | 6.0 | 0.00 | 0.49 | 0.00 | 70 | 1015.3 |
| 20260904174523 | 76 | 5 | 1.0 | 5.0 | 0.00 | 0.49 | 0.00 | 72 | 1015.5 |
| 20260904173022 | 76 | 236 | 0.0 | 3.0 | 0.00 | 0.49 | 0.00 | 73 | 1015.6 |
| 20260904171521 | 76 | 254 | 0.0 | 2.0 | 0.00 | 0.49 | 0.00 | 76 | 1015.8 |
| 20260904170013 | 75 | 9 | 0.0 | 3.0 | 0.00 | 0.49 | 0.00 | 74 | 1016.1 |
| 20260904164527 | 75 | 5 | 1.0 | 4.0 | 0.00 | 0.49 | 0.00 | 73 | 1016.1 |
| 20260904163045 | 75 | 26 | 0.0 | 2.0 | 0.00 | 0.49 | 0.00 | 74 | 1016.2 |
| 20260904161544 | 75 | 355 | 0.0 | 5.0 | 0.00 | 0.49 | 0.00 | 74 | 1016.1 |
| 20260904160045 | 75 | 355 | 0.0 | 3.0 | 0.00 | 0.49 | 0.00 | 76 | 1016.0 |
| 20260904154504 | 76 | 266 | 2.0 | 4.0 | 0.00 | 0.49 | 0.00 | 72 | 1016.0 |
| 20260904153007 | 75 | 26 | 0.0 | 3.0 | 0.00 | 0.49 | 0.00 | 75 | 1015.9 |
| 20260904151546 | 74 | 5 | 0.0 | 2.0 | 0.00 | 0.49 | 0.00 | 78 | 1016.3 |
| 20260904150051 | 73 | 16 | 1.0 | 3.0 | 0.00 | 0.49 | 0.00 | 78 | 1015.7 |
| 20260904144544 | 74 | 360 | 1.0 | 4.0 | 0.00 | 0.49 | 0.00 | 77 | 1015.8 |
| 20260904143049 | 73 | 5 | 0.0 | 3.0 | 0.00 | 0.49 | 0.00 | 83 | 1015.8 |
| 20260904141547 | 72 | 10 | 0.0 | 3.0 | 0.00 | 0.49 | 0.00 | 84 | 1016.0 |
| 20260904140016 | 71 | 322 | 0.0 | 3.0 | 0.00 | 0.49 | 0.00 | 90 | 1016.1 |
| 20260904134600 | 69 | 338 | 0.0 | 2.0 | 0.00 | 0.49 | 0.00 | 95 | 1016.1 |
| 20260904133039 | 68 | 246 | 0.0 | 3.0 | 0.00 | 0.49 | 0.00 | 96 | 1016.2 |
| 20260904131528 | 68 | 257 | 0.0 | 2.0 | 0.00 | 0.49 | 0.00 | 98 | 1016.1 |
| 20260904130035 | 66 | 298 | 0.0 | 2.0 | 0.00 | 0.50 | 0.00 | 98 | 1016.1 |
| 20260904124530 | 66 | 315 | 0.0 | 2.0 | 0.00 | 0.50 | 0.00 | 98 | 1016.2 |
| 20260904123028 | 64 | 17 | 0.0 | 1.0 | 0.00 | 0.50 | 0.00 | 98 | 1016.0 |
| 20260904121558 | 63 | 17 | 0.0 | 1.0 | 0.00 | 0.50 | 0.00 | 98 | 1016.1 |
| 20260904120107 | 63 | 17 | 0.0 | 0.0 | 0.00 | 0.50 | 0.00 | 98 | 1015.9 |
| 20260904120002 | 62 | 17 | 0.0 | 1.0 | 0.00 | 0.50 | 0.00 | 98 | 1015.8 |
| 20260904114602 | 62 | 17 | 0.0 | 0.0 | 0.00 | 0.50 | 0.00 | 98 | 1015.8 |
| 20260904114502 | 62 | 17 | 0.0 | 0.0 | 0.00 | 0.50 | 0.00 | 98 | 1015.8 |
| 20260904113103 | 61 | 17 | 0.0 | 0.0 | 0.00 | 0.50 | 0.00 | 97 | 1015.7 |
| 20260904113002 | 61 | 17 | 0.0 | 0.0 | 0.00 | 0.50 | 0.00 | 97 | 1015.7 |
| 20260904111508 | 61 | 17 | 0.0 | 0.0 | 0.00 | 0.50 | 0.00 | 97 | 1015.6 |
| 20260904110007 | 61 | 17 | 0.0 | 0.0 | 0.00 | 0.50 | 0.00 | 97 | 1015.5 |
| 20260904104506 | 61 | 17 | 0.0 | 0.0 | 0.00 | 0.50 | 0.00 | 97 | 1015.5 |
| 20260904103101 | 61 | 17 | 0.0 | 0.0 | 0.00 | 0.50 | 0.00 | 97 | 1015.2 |
| 20260904101510 | 61 | 17 | 0.0 | 0.0 | 0.00 | 0.50 | 0.00 | 97 | 1015.1 |
| 20260904100008 | 62 | 17 | 0.0 | 0.0 | 0.00 | 0.50 | 0.00 | 96 | 1015.0 |
| 20260904094517 | 62 | 17 | 0.0 | 0.0 | 0.00 | 0.50 | 0.00 | 97 | 1015.0 |
| 20260904093012 | 63 | 17 | 0.0 | 0.0 | 0.00 | 0.50 | 0.00 | 96 | 1015.1 |
| 20260904091516 | 63 | 17 | 0.0 | 0.0 | 0.00 | 0.50 | 0.00 | 97 | 1015.1 |
| 20260904090029 | 63 | 17 | 0.0 | 0.0 | 0.00 | 0.50 | 0.00 | 97 | 1014.9 |
| 20260904084546 | 63 | 17 | 0.0 | 0.0 | 0.00 | 0.50 | 0.00 | 97 | 1014.8 |
| 20260904083047 | 64 | 17 | 0.0 | 0.0 | 0.00 | 0.50 | 0.00 | 97 | 1014.7 |
| 20260904081546 | 64 | 17 | 0.0 | 0.0 | 0.00 | 0.50 | 0.00 | 97 | 1014.5 |
| 20260904080044 | 64 | 17 | 0.0 | 0.0 | 0.00 | 0.50 | 0.00 | 96 | 1014.4 |
| 20260904074543 | 64 | 17 | 0.0 | 0.0 | 0.00 | 0.50 | 0.00 | 97 | 1014.6 |
| 20260904073047 | 64 | 17 | 0.0 | 0.0 | 0.00 | 0.50 | 0.00 | 97 | 1014.4 |
| 20260904071539 | 64 | 17 | 0.0 | 0.0 | 0.00 | 0.50 | 0.00 | 97 | 1014.3 |
| 20260904070044 | 65 | 17 | 0.0 | 0.0 | 0.00 | 0.50 | 0.00 | 96 | 1014.3 |
| 20260904064545 | 65 | 17 | 0.0 | 0.0 | 0.00 | 0.50 | 0.00 | 96 | 1014.1 |
| 20260904063034 | 66 | 17 | 0.0 | 0.0 | 0.00 | 0.50 | 0.00 | 97 | 1014.3 |
| 20260904061507 | 66 | 17 | 0.0 | 0.0 | 0.00 | 0.50 | 0.00 | 97 | 1014.4 |
| 20260904060049 | 66 | 17 | 0.0 | 0.0 | 0.00 | 0.50 | 0.00 | 96 | 1014.4 |
| 20260904054552 | 66 | 17 | 0.0 | 0.0 | 0.00 | 0.50 | 0.00 | 96 | 1014.5 |
| 20260904053049 | 66 | 17 | 0.0 | 0.0 | 0.00 | 0.50 | 0.00 | 96 | 1014.7 |
| 20260904051601 | 66 | 17 | 0.0 | 0.0 | 0.00 | 0.50 | 0.00 | 96 | 1014.7 |
| 20260904050015 | 67 | 17 | 0.0 | 0.0 | 0.00 | 0.50 | 0.00 | 96 | 1014.8 |
| 20260904044549 | 67 | 17 | 0.0 | 0.0 | 0.00 | 0.50 | 0.00 | 96 | 1014.8 |
| 20260904043055 | 67 | 17 | 0.0 | 0.0 | 0.00 | 0.50 | 0.00 | 96 | 1014.8 |
| 20260904041533 | 67 | 17 | 0.0 | 0.0 | 0.00 | 0.50 | 0.00 | 96 | 1014.7 |
| 20260904040036 | 67 | 17 | 0.0 | 0.0 | 0.00 | 0.50 | 0.50 | 96 | 1014.6 |
| 20260904034521 | 67 | 17 | 0.0 | 0.0 | 0.00 | 0.50 | 0.50 | 96 | 1014.5 |
| 20260904033016 | 68 | 17 | 0.0 | 0.0 | 0.00 | 0.50 | 0.50 | 96 | 1014.4 |
| 20260904031542 | 68 | 17 | 0.0 | 0.0 | 0.00 | 0.50 | 0.50 | 96 | 1014.3 |
| 20260904030042 | 68 | 17 | 0.0 | 0.0 | 0.00 | 0.50 | 0.50 | 96 | 1014.2 |
| 20260904024547 | 68 | 17 | 0.0 | 0.0 | 0.00 | 0.50 | 0.50 | 95 | 1014.2 |
| 20260904023049 | 68 | 17 | 0.0 | 0.0 | 0.00 | 0.50 | 0.50 | 95 | 1014.3 |
| 20260904021608 | 69 | 17 | 0.0 | 0.0 | 0.00 | 0.50 | 0.50 | 95 | 1014.4 |
| 20260904021502 | 69 | 17 | 0.0 | 0.0 | 0.00 | 0.50 | 0.50 | 95 | 1014.4 |
| 20260904020057 | 69 | 17 | 0.0 | 0.0 | 0.00 | 0.53 | 0.50 | 95 | 1014.4 |
| 20260904014510 | 69 | 17 | 0.0 | 0.0 | 0.01 | 0.53 | 0.50 | 95 | 1014.3 |
| 20260904013010 | 70 | 17 | 0.0 | 0.0 | 0.01 | 0.53 | 0.50 | 94 | 1014.2 |
| 20260904011537 | 71 | 17 | 0.0 | 0.0 | 0.19 | 0.53 | 0.50 | 95 | 1014.1 |
| 20260904010038 | 72 | 17 | 0.0 | 0.0 | 0.32 | 0.62 | 0.50 | 95 | 1014.1 |
| 20260904004526 | 72 | 17 | 0.0 | 2.0 | 0.31 | 0.61 | 0.49 | 95 | 1014.0 |
| 20260904003034 | 72 | 17 | 0.0 | 2.0 | 0.31 | 0.61 | 0.49 | 95 | 1013.8 |
| 20260904001525 | 74 | 5 | 1.0 | 4.0 | 0.10 | 0.40 | 0.30 | 94 | 1013.9 |
| 20260904000028 | 75 | 196 | 0.0 | 1.0 | 0.00 | 1.07 | 0.18 | 95 | 1013.1 |